Location: Battersea Observatory
(44.4318°N, 76.3841°W)
Time: 12:54:10
(UTC-05:00)

Tiangong - Pass Details

Date: 13 December 2021
Orbit: 383 x 386 km, 41.5° (Epoch: 19 January)

Event Time Altitude Azimuth Distance (km) Brightness Sun altitude
Rises 18:12:59 0° 261° (W) 2,276 6.7 -18.2°
Reaches altitude 10° 18:15:06 10° 255° (WSW) 1,419 5.2 -18.6°
Maximum altitude 18:18:13 49° 179° (S) 507 1.7 -19.1°
Enters shadow 18:18:28 48° 160° (SSE) 519 1.6 -19.2°
